EW1145 Weather Reports


time (UTC)temp
C
wind
direction
speed
KPH
gust
KPH
rain 1hr
cm
rain 24hr
cm
rain mn
cm
humidity
%
barometer
mb
20260507030055 15 25 0.0 8.0 0.00 0.00 0.00 73 1019.8
20260507024552 15 63 0.0 12.9 0.00 0.00 0.00 72 1019.7
20260507023051 16 5 0.0 11.3 0.00 0.00 0.00 72 1019.5
20260507021551 16 29 0.0 11.3 0.00 0.00 0.00 71 1019.4
20260507020101 17 345 0.0 12.9 0.00 0.00 0.00 69 1019.4
20260507014602 18 312 0.0 8.0 0.00 0.00 0.00 66 1019.4
20260507013049 18 95 1.6 12.9 0.00 0.00 0.00 67 1019.4
20260507011600 18 22 0.0 8.0 0.00 0.00 0.00 66 1019.5
20260507010049 18 13 0.0 8.0 0.00 0.00 0.00 68 1019.5
20260507004548 18 46 1.6 11.3 0.00 0.00 0.00 68 1019.4
20260507003047 18 355 0.0 6.4 0.00 0.00 0.00 68 1019.4
20260507001604 19 22 1.6 9.7 0.00 0.00 0.00 65 1019.3
20260507000053 20 61 0.0 12.9 0.00 0.00 0.00 65 1019.3
20260506234547 20 17 0.0 8.0 0.00 0.00 0.00 65 1019.3
20260506233045 20 336 0.0 8.0 0.00 0.00 0.00 66 1019.2
20260506231544 20 23 0.0 4.8 0.00 0.00 0.00 66 1019.3
20260506230047 20 340 0.0 1.6 0.00 0.00 0.00 67 1019.3
20260506224542 20 345 1.6 8.0 0.00 0.00 0.00 67 1019.4
20260506223040 20 105 0.0 3.2 0.00 0.00 0.00 67 1019.6
20260506221539 20 58 0.0 1.6 0.00 0.00 0.00 68 1019.7
20260506220042 20 119 0.0 4.8 0.00 0.00 0.00 68 1019.6
20260506214537 19 34 0.0 1.6 0.00 0.00 0.00 68 1019.6
20260506213036 19 50 0.0 6.4 0.00 0.00 0.00 69 1019.7
20260506211537 19 31 0.0 11.3 0.00 0.00 0.00 69 1019.7
20260506210035 20 86 0.0 8.0 0.00 0.00 0.00 68 1019.7
20260506204535 19 221 0.0 6.4 0.00 0.00 0.00 69 1019.8
20260506203043 18 235 0.0 9.7 0.00 0.00 0.00 70 1019.9
20260506201529 18 153 0.0 6.4 0.00 0.00 0.00 70 1019.9
20260506200031 18 211 1.6 8.0 0.00 0.00 0.00 72 1019.9
20260506194526 18 114 0.0 6.4 0.00 0.00 0.00 74 1020.2
20260506193023 17 80 0.0 1.6 0.00 0.00 0.00 74 1020.3
20260506191523 17 184 0.0 8.0 0.00 0.00 0.00 74 1020.3
20260506190033 17 71 0.0 4.8 0.00 0.00 0.00 75 1020.3
20260506184522 17 192 1.6 9.7 0.00 0.00 0.00 73 1020.2
20260506183019 17 148 1.6 9.7 0.00 0.00 0.00 76 1020.3
20260506181519 17 194 1.6 6.4 0.00 0.00 0.00 75 1020.2
20260506180015 16 207 1.6 11.3 0.00 0.00 0.00 79 1020.0
20260506174515 15 92 0.0 3.2 0.00 0.00 0.00 81 1020.3
20260506173009 15 199 0.0 6.4 0.00 0.00 0.00 83 1020.4
20260506171514 15 78 0.0 0.0 0.00 0.00 0.00 82 1020.3
20260506170008 15 199 0.0 4.8 0.00 0.00 0.00 83 1020.3
20260506164508 14 190 0.0 6.4 0.00 0.00 0.00 83 1020.2
20260506163004 13 188 0.0 0.0 0.00 0.00 0.00 84 1020.1
20260506161504 13 188 0.0 0.0 0.00 0.00 0.00 84 1020.4
20260506160004 13 188 0.0 0.0 0.00 0.00 0.00 84 1020.3
20260506154505 13 51 0.0 0.0 0.00 0.00 0.00 85 1020.1
20260506153001 13 51 0.0 0.0 0.00 0.00 0.00 85 1019.8
20260506151502 13 51 0.0 0.0 0.00 0.00 0.00 85 1019.7
20260506150100 13 51 0.0 0.0 0.00 0.00 0.00 87 1019.6
20260506144559 12 51 0.0 0.0 0.00 0.00 0.00 87 1020.3
20260506143058 12 51 0.0 0.0 0.00 0.00 0.00 89 1020.2
20260506141556 12 51 0.0 0.0 0.00 0.00 0.00 90 1020.0
20260506140054 12 51 0.0 0.0 0.00 0.00 0.00 90 1019.6
20260506134552 12 51 0.0 0.0 0.00 0.00 0.00 91 1019.2
20260506133052 12 51 0.0 0.0 0.00 0.00 0.00 91 1019.3
20260506131551 12 51 0.0 0.0 0.00 0.00 0.00 91 1019.1
20260506130048 12 51 0.0 0.0 0.00 0.00 0.00 92 1019.0
20260506124547 11 51 0.0 0.0 0.00 0.00 0.00 91 1018.8
20260506123048 12 51 0.0 0.0 0.00 0.00 0.00 90 1018.7
20260506121550 12 51 0.0 0.0 0.00 0.00 0.00 89 1018.6
20260506120041 12 51 0.0 0.0 0.00 0.00 0.00 88 1018.6
20260506114541 12 51 0.0 0.0 0.00 0.00 0.00 88 1018.5
20260506113036 13 51 0.0 0.0 0.00 0.00 0.00 88 1018.4
20260506111535 13 51 0.0 0.0 0.00 0.00 0.00 87 1018.3
20260506110036 13 51 0.0 0.0 0.00 0.00 0.00 87 1018.3
20260506104532 13 51 0.0 0.0 0.00 0.00 0.00 87 1018.1
20260506103030 13 51 0.0 0.0 0.00 0.00 0.00 87 1017.9
20260506101529 13 51 0.0 0.0 0.00 0.00 0.00 87 1017.7
20260506100030 13 51 0.0 0.0 0.00 0.00 0.00 88 1017.5
20260506094526 13 51 0.0 0.0 0.00 0.00 0.00 88 1017.4
20260506093023 13 51 0.0 0.0 0.00 0.00 0.00 89 1017.3
20260506091523 13 51 0.0 0.0 0.00 0.00 0.00 89 1017.3
20260506090024 13 51 0.0 0.0 0.00 0.00 0.00 89 1017.3
20260506084533 13 51 0.0 0.0 0.00 0.00 0.00 90 1017.3
20260506083024 13 51 0.0 0.0 0.00 0.00 0.00 89 1017.2
20260506081519 13 51 0.0 0.0 0.00 0.00 0.00 88 1017.2
20260506073014 13 51 0.0 0.0 0.00 0.00 0.00 90 1016.9
20260506071512 13 51 0.0 0.0 0.00 0.00 0.00 89 1016.8
20260506061509 14 51 0.0 0.0 0.00 0.00 0.00 86 1016.5
20260506044513 14 51 0.0 0.0 0.00 0.00 0.00 84 1016.2
20260506043005 14 51 0.0 0.0 0.00 0.00 0.00 85 1016.0
20260506041505 14 51 0.0 0.0 0.00 0.00 0.00 84 1015.8
20260506040004 15 51 0.0 0.0 0.00 0.00 0.00 82 1015.5
20260506034505 15 51 0.0 0.0 0.00 0.00 0.00 80 1015.3
20260506033006 15 51 0.0 0.0 0.00 0.00 0.00 79 1015.1
20260506031503 16 51 0.0 0.0 0.00 0.00 0.00 77 1015.0